SCP
0 0 0 0 0 0 0 0 0 0 0 0 0 0 1 1 1 1 1 2 4 5 6 5 3 2 2 2 1 1 1 1 1 1 2 2 2 2 2 1 1 1 1 1
0 0 0 0 0 0 0 0 0 0 0 0 0 0 1 1 1 1 1 3 5 6 6 5 3 2 2 2 1 1 1 2 2 2 2 2 3 2 2 2 2 1 1 1
0 0 0 0 0 0 0 0 0 0 0 0 0 0 0 1 1 1 1 4 6 8 7 5 3 2 2 2 2 2 2 2 2 3 3 4 4 4 3 2 2 2 1 1
0 0 0 0 0 0 0 0 0 0 0 0 0 0 0 1 1 1 1 3 6 7 6 4 3 2 2 2 2 2 2 2 3 3 4 5 5 5 4 3 2 2 1 1
0 0 0 0 0 0 0 0 0 0 0 0 0 0 0 0 1 1 1 3 4 6 6 5 3 3 3 3 3 2 2 3 3 3 4 5 5 4 3 2 2 2 1 1
0 0 0 0 0 0 0 0 0 0 0 0 0 0 0 0 1 1 2 3 5 7 7 6 4 3 3 3 3 3 3 3 4 4 4 4 4 3 3 2 2 2 1 1
0 0 0 0 0 0 0 0 0 0 0 0 0 0 0 0 1 1 2 4 7 8 8 6 4 3 3 3 3 4 4 4 4 3 3 3 3 3 2 2 2 2 2 2
0 0 0 0 0 0 0 0 0 0 0 0 0 0 0 1 1 1 2 4 6 7 6 4 3 2 3 3 3 4 4 4 4 3 3 3 2 2 1 1 1 2 2 2
0 0 0 0 0 0 0 0 0 0 0 0 0 1 1 1 1 1 2 3 4 5 4 3 3 3 3 3 3 3 4 4 4 3 2 2 2 2 1 1 1 1 1 1
0 0 0 0 0 0 0 0 0 0 0 0 0 0 1 1 1 1 1 2 2 3 4 3 3 3 3 3 3 3 3 3 3 3 2 2 2 2 1 1 1 1 1 1
0 0 0 0 0 0 0 0 0 0 0 0 0 0 0 1 1 1 1 1 2 2 3 3 2 2 3 3 3 3 3 3 3 3 2 1 1 1 1 1 1 1 1 1
0 0 0 0 0 0 0 0 0 0 0 0 0 0 0 1 1 1 2 1 2 2 2 2 2 2 2 3 3 3 3 3 3 2 2 1 1 1 1 1 1 1 1 1
0 0 0 0 0 0 0 0 0 0 0 0 0 0 0 0 1 1 1 1 1 2 2 2 3 2 2 3 3 3 3 3 3 3 2 1 1 1 1 1 1 1 1 1
0 0 0 0 0 0 0 0 0 0 0 0 0 0 0 1 1 1 1 1 2 2 3 4 4 3 2 2 3 2 2 3 3 3 2 1 1 1 1 1 1 1 1 1
0 0 0 0 0 0 0 0 0 0 0 0 0 0 0 1 1 1 2 2 2 3 3 4 3 3 2 2 2 2 1 1 2 2 1 1 1 1 1 1 1 1 1 1
0 0 0 0 0 0 0 0 0 0 0 0 0 0 1 1 1 2 2 2 2 2 2 3 2 2 2 2 2 2 1 1 1 1 1 1 1 1 1 1 2 2 2 2
0 0 0 0 0 0 0 1 1 1 1 1 0 1 1 2 2 2 2 2 2 2 2 2 2 2 1 1 2 1 1 1 1 1 1 1 1 1 1 2 2 2 2 2
0 0 0 0 0 0 0 1 1 1 1 1 1 1 2 2 2 2 2 2 2 2 2 2 2 2 1 1 1 1 1 1 1 1 1 2 2 2 2 2 3 3 3 4
0 0 0 0 0 0 0 1 1 1 1 1 1 2 2 2 2 2 2 2 1 1 1 2 2 2 1 1 1 1 1 1 1 1 1 2 2 2 2 3 3 3 4 4
0 0 0 0 0 0 0 1 1 1 1 1 1 1 2 2 1 1 2 2 1 1 1 1 2 2 2 1 1 1 1 1 1 1 1 2 2 2 2 3 3 3 3 4
0 0 0 0 0 0 1 1 1 1 1 1 1 1 2 1 1 2 2 2 2 2 2 2 2 2 2 1 0 0 1 1 1 1 2 2 2 2 2 3 3 2 2 1
0 0 0 0 0 0 1 1 1 1 1 1 1 1 1 2 2 2 3 2 2 3 2 2 2 2 1 1 0 0 0 1 1 1 2 2 2 2 2 2 2 1 0 0
0 0 0 1 1 1 1 1 2 1 2 2 1 1 1 2 2 3 2 2 3 3 2 2 2 2 1 1 0 0 0 0 1 1 1 1 1 1 1 1 1 0 0 0
0 0 1 1 1 1 1 2 2 2 2 2 2 1 2 2 2 2 2 2 3 3 2 2 1 1 1 1 0 0 0 0 0 1 0 0 0 0 0 0 0 0 0 0
0 0 1 1 1 1 1 2 1 1 1 2 2 2 2 2 2 2 2 2 2 3 2 2 1 1 1 1 0 0 0 0 0 0 0 0 0 0 0 0 0 0 0 0
0 0 1 1 1 1 1 1 1 1 1 1 1 2 2 2 1 1 1 2 2 3 3 2 1 1 1 1 0 0 0 0 0 0 0 0 0 0 0 0 0 0 0 0
Wind_Speed
3 4 4 6 5 5 3 1 2 4 2 1 3 5 4 5 7 8 8 9 9 10 8 6 7 8 9 8 9 10 9 8 7 5 5 5 5 4 4 5 6 7 7 7
4 3 5 5 4 3 2 1 3 4 2 1 2 4 3 5 9 10 10 10 10 8 6 6 7 8 9 10 10 10 10 9 8 6 5 3 3 3 4 4 5 7 7 7
6 4 4 5 4 3 2 4 3 2 4 4 2 5 4 2 2 3 5 6 6 9 9 9 9 10 9 10 10 10 9 8 8 6 4 2 2 1 2 3 4 6 7 7
4 4 3 4 4 5 4 5 4 1 2 3 2 2 5 3 2 4 5 6 7 8 8 8 8 8 9 9 8 8 8 7 7 7 6 6 5 5 5 4 4 5 7 7
6 4 5 5 6 8 6 2 2 1 2 1 2 2 7 2 4 7 7 7 7 7 7 7 7 7 7 7 7 7 7 7 7 7 8 7 6 5 3 3 5 5 5 6
4 3 5 7 4 6 5 6 6 6 5 1 2 2 6 4 6 6 6 6 6 6 5 5 4 4 5 5 6 6 6 6 6 7 7 8 7 6 5 5 5 5 3 4
2 3 3 3 3 2 5 7 5 4 4 4 3 2 9 6 6 7 7 6 5 5 5 5 5 5 5 5 6 6 6 5 6 6 6 6 7 7 7 6 6 5 3 4
5 5 5 5 7 7 6 10 9 6 5 4 2 4 8 5 5 4 3 3 3 4 5 5 6 6 6 6 5 5 6 5 5 5 5 4 4 4 4 5 5 5 4 4
7 6 4 4 5 11 7 4 7 8 3 0 4 6 8 2 2 1 0 2 3 3 4 4 5 5 5 5 5 6 5 4 4 5 4 3 3 3 3 3 3 3 3 4
9 4 3 1 5 3 7 10 7 7 6 2 4 4 5 5 4 3 2 1 1 2 3 4 4 4 4 4 4 5 5 4 3 3 3 3 2 3 2 2 2 3 3 3
6 4 2 1 5 7 5 5 6 6 6 7 3 8 7 7 6 5 4 3 2 3 4 4 4 4 4 4 4 4 4 3 3 3 3 2 2 2 2 2 2 2 2 2
5 6 2 4 3 4 6 9 9 7 4 5 5 9 5 5 4 5 4 2 2 3 4 4 4 4 4 4 4 4 3 3 3 3 3 2 2 2 1 1 1 1 1 1
8 7 3 4 4 1 3 4 5 7 7 6 5 8 2 0 1 2 3 3 3 4 5 4 4 4 4 4 3 3 3 2 3 3 3 2 2 2 1 1 0 1 1 0
9 6 8 9 8 6 4 4 6 7 6 6 8 7 5 4 3 3 3 3 3 4 5 4 4 4 3 3 3 3 3 3 3 4 4 3 2 2 2 1 1 1 1 1
6 5 4 4 4 4 4 6 7 6 9 10 9 9 10 9 7 5 5 5 5 5 4 4 4 4 4 3 3 3 3 2 3 4 3 2 2 2 3 3 3 3 3 2
4 5 4 1 1 3 2 4 8 6 5 5 3 7 6 3 3 5 6 7 6 5 5 4 4 4 4 3 3 3 3 3 3 4 3 3 3 4 4 4 4 4 4 4
3 6 5 2 1 3 2 5 6 5 5 8 9 9 4 5 7 8 7 7 6 6 5 5 5 4 4 3 3 3 3 4 4 4 3 4 4 4 4 4 5 5 4 5
6 5 4 3 3 4 7 2 4 4 3 4 4 4 8 7 5 3 4 7 6 5 5 4 3 3 3 3 4 4 4 4 5 4 4 4 5 5 5 5 5 5 5 5
4 8 5 4 4 2 3 1 2 4 2 2 4 5 6 8 6 2 1 4 5 5 5 4 4 3 3 4 4 5 5 5 5 5 4 4 5 5 5 5 5 5 5 6
5 5 6 5 5 6 6 2 1 3 3 2 6 9 10 9 5 5 5 6 6 6 5 5 5 5 5 4 4 6 5 5 5 4 4 5 5 5 5 5 5 5 6 6
4 4 4 4 3 5 4 3 1 5 7 3 6 8 10 7 5 6 8 7 7 7 7 6 7 6 5 4 5 7 6 5 4 5 6 6 6 6 5 6 6 7 7 8
3 4 3 4 3 6 2 1 4 5 2 3 5 6 6 5 6 8 9 8 8 8 7 7 7 6 5 5 6 7 6 5 6 7 7 7 7 6 6 7 7 7 7 8
2 4 4 5 6 4 2 3 4 2 2 2 4 6 8 8 7 8 8 9 8 8 7 6 8 8 6 5 6 7 5 5 7 8 8 8 8 8 7 7 7 6 6 6
1 1 2 1 3 3 3 2 2 1 1 2 5 7 8 9 9 9 9 8 8 7 7 6 8 8 6 5 6 5 5 6 8 8 8 7 8 8 8 7 6 6 5 5
3 2 2 1 3 3 3 2 1 2 4 5 6 6 8 11 10 9 8 8 7 7 6 6 7 7 7 6 6 5 5 6 8 9 8 7 8 8 9 8 7 6 5 3
3 5 5 5 5 3 2 1 1 3 5 6 8 7 7 8 10 9 8 7 7 6 6 7 7 7 6 6 6 5 4 6 9 8 7 6 6 6 7 8 9 14 11 14
Wind_Direction
90 91 183 198 177 164 144 139 282 269 257 182 228 254 256 195 190 191 192 194 199 208 203 185 183 182 181 185 186 188 190 188 175 174 182 188 204 205 202 207 208 201 197 194
63 239 213 163 156 148 147 250 285 303 352 131 253 291 282 195 203 200 197 198 201 200 191 188 180 185 186 189 191 190 193 189 186 189 185 184 185 194 204 204 204 204 199 196
172 223 164 153 163 166 196 199 224 265 354 23 52 345 338 292 226 212 211 205 201 199 198 196 191 195 191 194 194 194 193 189 189 182 164 151 134 130 183 200 209 210 203 201
210 234 165 166 191 159 240 221 198 209 59 329 43 296 298 299 278 234 221 207 205 205 201 197 195 197 197 196 190 190 184 183 184 176 176 179 186 199 206 202 206 209 207 204
218 196 174 196 204 166 205 158 135 101 131 33 12 142 286 320 265 254 234 219 214 206 197 199 200 197 194 185 182 184 178 184 184 185 188 190 200 208 203 202 202 211 209 205
217 217 192 201 192 170 146 70 53 47 70 48 273 163 274 248 235 251 242 226 214 206 192 191 187 167 176 178 174 173 177 189 185 190 196 200 201 202 201 207 207 211 209 207
247 251 226 172 125 106 109 92 41 10 22 249 284 197 248 255 250 239 237 226 211 193 182 173 162 167 175 176 174 173 178 192 191 195 203 208 208 205 209 209 209 205 205 208
174 254 225 186 171 166 165 139 153 177 204 266 320 235 255 267 277 261 235 207 186 182 179 169 167 167 168 177 174 170 178 189 188 196 208 209 203 204 212 206 201 203 208 213
170 238 268 215 174 138 134 159 154 126 142 111 285 288 300 274 304 307 203 153 170 177 164 158 154 153 158 163 166 169 171 178 184 192 193 194 193 201 213 210 203 203 208 213
153 206 274 239 97 52 140 142 110 120 140 208 284 274 255 261 257 262 243 207 182 148 136 138 138 145 153 157 149 148 160 172 178 178 187 188 192 196 202 199 209 208 215 219
137 156 301 68 166 167 114 106 110 113 143 151 215 263 231 226 222 218 226 215 180 152 145 142 138 137 131 123 130 143 150 148 155 173 180 173 180 186 183 199 214 215 215 207
144 127 219 261 259 177 151 158 145 146 183 161 167 261 270 231 216 201 208 200 157 141 137 132 126 119 118 123 130 137 143 150 159 158 153 157 159 151 160 195 210 192 198 209
140 124 109 345 346 95 133 152 145 123 119 147 165 259 295 243 198 187 178 167 149 134 125 115 112 118 124 129 131 128 130 136 132 127 131 132 131 133 147 151 106 112 140 161
124 123 159 186 208 183 169 163 147 126 143 181 210 236 264 238 219 196 175 160 144 136 128 122 120 120 124 128 125 118 120 122 123 121 124 129 138 144 135 118 94 83 79 80
117 147 183 210 208 172 177 179 168 169 175 177 215 216 234 218 205 186 165 150 142 141 137 138 138 133 127 120 111 110 110 110 113 113 110 116 116 110 101 90 79 74 73 72
98 142 150 228 207 174 175 183 178 184 174 191 192 236 238 189 151 157 164 160 157 154 147 141 136 132 134 133 126 118 113 114 110 111 113 106 99 97 95 88 79 74 69 66
113 123 124 201 210 107 215 206 181 187 186 171 195 222 167 163 178 180 175 168 163 160 152 146 147 146 149 142 127 117 112 113 111 108 106 101 97 91 86 86 77 69 64 69
131 112 119 133 114 186 237 248 186 167 197 199 204 189 174 173 154 142 155 162 158 152 145 138 135 131 122 115 112 109 109 115 112 106 102 100 100 95 89 87 81 72 66 65
143 130 116 121 148 235 289 244 151 151 234 202 176 160 138 118 92 61 157 145 148 141 133 130 125 120 112 113 113 108 105 104 102 101 99 102 104 103 99 96 92 89 85 76
59 91 111 120 138 202 231 262 275 116 264 217 164 159 151 136 151 208 164 131 121 115 111 109 107 105 101 99 111 110 104 99 98 100 97 97 99 102 102 102 97 88 86 84
54 58 102 133 163 247 254 289 121 160 234 199 168 167 165 176 188 153 135 126 121 113 107 104 101 96 92 98 107 103 96 92 89 93 94 93 93 93 96 96 90 91 90 86
150 134 151 135 156 238 307 57 174 218 248 160 165 167 161 133 113 121 126 125 119 113 109 107 104 94 83 90 103 100 96 95 94 93 90 86 85 88 90 92 89 90 93 91
172 181 178 181 202 242 278 254 271 236 202 185 159 151 142 133 130 128 128 125 119 116 112 106 107 99 86 82 99 106 102 102 101 94 89 85 83 79 81 89 94 90 88 92
258 144 132 264 279 288 300 303 314 266 211 170 147 142 138 136 134 130 129 124 119 115 114 113 111 106 98 89 89 99 105 104 106 102 96 90 89 83 74 70 73 82 83 92
225 164 140 253 277 311 324 346 355 55 86 104 110 120 131 132 133 133 129 126 122 118 115 112 111 110 106 100 93 94 105 109 106 102 98 92 88 91 82 70 57 64 55 77
210 184 176 212 217 191 249 308 58 102 108 120 116 107 112 126 129 126 122 119 114 109 109 106 102 101 100 98 94 89 97 113 113 107 102 99 99 97 98 95 78 57 66 68